HISPASAT 36W-1 (41942 NORAD) Tracking and Keplerian Element Data

This shows tracking and keplerian element data for the satellite.

Feedback or suggestion? Click here.




ElementValue
Catalog41942
NameHISPASAT 36W-1
Epoch Orbit1694
Epoch Day269.82801813
Epoch Year2021
RAAN121.1149
Inclination0.0005
Eccentricity0.0001032
Argument of Perigee62.4594
Mean Anonmoly84.374
Mean Motion1.00272035
Decay Rate-2.46E-06
L11 41942U 17006A 21269.82801813 -.00000246 00000-0 00000-0 0 9998
L22 41942 0.0005 121.1149 0001032 62.4594 84.3740 1.00272035 16948

Live tracking and technical data element details for HISPASAT 36W-1 (NORAD 41942). HISPASAT 36W-1 can be tracked NOW for your location showing map with azimuth and elevation plus other details from your city location.

Track the satellite on the map from your city or location and see movement details for azimuth, elevation, latitude, longitude, range, height, and movement on the map or in text.







IsCatalogInMostPopularTable: catalog: 41942, numindb: 529
Update: records affected: 1



GetName: 41942 HISPASAT 36W-1

Hit Count: updated at: Tue, 28 Sep 2021 16:42:30 GMT